www.pogodaiklimat.ru
ПОГОДА в Тулче

Архив погоды в Тулче (Румыния)

Время
(UTC), дата
07 17.06
08 17.06
09 17.06
10 17.06
11 17.06
12 17.06
13 17.06
14 17.06
15 17.06
16 17.06
17 17.06
18 17.06
19 17.06
20 17.06
21 17.06
22 17.06
23 17.06
00 18.06
01 18.06
02 18.06
03 18.06
04 18.06
05 18.06
06 18.06
07 18.06
08 18.06
09 18.06
10 18.06
11 18.06
12 18.06
13 18.06
14 18.06
15 18.06
16 18.06
17 18.06
18 18.06
19 18.06
20 18.06
21 18.06
22 18.06
23 18.06
00 19.06
01 19.06
02 19.06
03 19.06
04 19.06
05 19.06
06 19.06
07 19.06
08 19.06
09 19.06
10 19.06
11 19.06
12 19.06
13 19.06
14 19.06
15 19.06
16 19.06
17 19.06
18 19.06
19 19.06
20 19.06
21 19.06
22 19.06
23 19.06
00 20.06
01 20.06
02 20.06
03 20.06
04 20.06
05 20.06
06 20.06
07 20.06
08 20.06
09 20.06
10 20.06
11 20.06
12 20.06
13 20.06
14 20.06
15 20.06
16 20.06
17 20.06
18 20.06
19 20.06
20 20.06
21 20.06
22 20.06
23 20.06
00 21.06
01 21.06
02 21.06
03 21.06
04 21.06
05 21.06
06 21.06
07 21.06
08 21.06
09 21.06
10 21.06
11 21.06
12 21.06
13 21.06
14 21.06
15 21.06
16 21.06
17 21.06
18 21.06
19 21.06
20 21.06
21 21.06
22 21.06
23 21.06
00 22.06
01 22.06
02 22.06
03 22.06
04 22.06
05 22.06
06 22.06
07 22.06
08 22.06
09 22.06
10 22.06
11 22.06
12 22.06
13 22.06
14 22.06
15 22.06
16 22.06
17 22.06
18 22.06
19 22.06
20 22.06
21 22.06
22 22.06
23 22.06
00 23.06
01 23.06
02 23.06
03 23.06
04 23.06
05 23.06
06 23.06
07 23.06
08 23.06
09 23.06
10 23.06
11 23.06
12 23.06
13 23.06
14 23.06
15 23.06
16 23.06
17 23.06
18 23.06
19 23.06
20 23.06
21 23.06
22 23.06
23 23.06
00 24.06
01 24.06
02 24.06
03 24.06
04 24.06
05 24.06
06 24.06
Ветер
(напр.,м/с)
Видим. Явления Облачность Т
(С)
Тd
(С)
f
(%)
Тe
(С)
Тes
(С)
Комфортность P
(гПа)
Po
(гПа)
Тmin
(С)
Tmax
(С)
R
(мм)
R24
(мм)
S
(см)
СЗ 3-4 {5} 20 км 3/0
[Ac trans]
+24.8 +17.3 63 +29 +37 душно 1013.2 1012.5
С 2-3 {4} 20 км 3/0
[Ac trans]
+27.3 +16.4 51 +31 +43 душно 1013.3 1012.7
З 1-3 {3} 20 км 4/0
[Ac trans]
+28.5 +15.2 44 +31 +47 душно 1013.4 1012.7
З 1-3 {4} 20 км 4/0
[Ac trans]
+29.2 +15.1 42 +32 +49 душно 1013.6 1012.9
СЗ 2-4 {4} 17 км 4/3 600 м
[Cu med, cong Ac trans]
+29.8 +14.9 40 +32 +44 душно 1013.6 1013.0
З 1-3 {5} 20 км 4/3 600 м
[Cu med, cong Ac trans]
+30.9 +13.8 35 +32 +44 жарко 1013.4 1012.8
З 2-4 {4} 20 км 6/4 600 м
[Cb calv Ac trans]
+31.1 +13.2 34 +32 +38 жарко 1013.4 1012.8
СЗ 2-3 {5} 20 км 6/4 600 м
[Cb calv Ac trans]
+30.2 +14.7 39 +32 +36 жарко 1013.4 1012.8
СЗ 2-3 {4} 20 км 8/4 600 м
[Cb calv Ac trans]
+31.1 +15.6 39 +34 +35 душно 1013.2 1012.5
СЗ 2-3 {4} 20 км 5/3 600 м
[Cu med, cong Ac trans]
+30.8 +16.0 41 +34 +35 очень душно 1013.4 1012.7
ЮВ 3-5 {5} 20 км 4/1 600 м
[Cu med, cong Ac trans]
+28.9 +17.3 50 +33 +33 очень душно 1013.9 1013.2
Ю 2-3 {4} 20 км 3/1 600 м
[Cu med, cong Ac trans]
+27.0 +16.0 51 +30 +30 душно 1014.2 1013.6 +23.5 +31.7
Ю 1-2 {3} 20 км 1/0
[Ac trans]
+23.8 +16.6 64 +27 +27 жарко 1014.8 1014.2
Ю 2-4 {4} 20 км 1/0
[Ac trans]
+23.7 +17.4 68 +28 +28 душно 1015.3 1014.7
В 2-3 {3} 20 км ясно +22.3 +16.2 68 +26 +26 жарко 1015.4 1014.7
В 1-1 {2} 20 км ясно +21.1 +16.0 73 +24 +24 комфорт 1015.5 1014.8
С 1-3 {3} 20 км ясно +21.3 +16.9 76 +25 +25 комфорт 1015.9 1015.2
Ю 1-2 {2} 20 км 5/0 600 м
[Ac trans]
+18.6 +17.1 91 +21 +21 комфорт 1016.0 1015.3 0
штиль 0-1 {2} 20 км 5/0
[Ac trans]
+19.4 +17.1 87 +21 +21 комфорт 1016.4 1015.7
СЗ 1-2 {2} 20 км 3/0
[Ac trans]
+19.3 +17.8 91 +22 +22 комфорт 1016.6 1015.9
ЮЗ 2-2 {2} 20 км 3/0
[Ac trans]
+18.7 +18.0 96 +20 +21 1016.8 1016.1
ЮВ 1-2 {2} 20 км 1/0
[Ac trans]
+19.7 +18.3 92 +23 +25 комфорт 1017.4 1016.7
С 1-2 {2} 20 км 1/0
[Ac trans]
+23.8 +18.9 74 +29 +33 душно 1017.7 1017.0
В 1-2 {3} 20 км 1/0
[Ac trans]
+24.6 +19.7 74 +30 +39 очень душно 1018.0 1017.4 +17.7 +26.9
СВ 2-4 {4} 20 км ясно +26.3 +19.5 66 +32 +44 очень душно 1018.3 1017.6
В 3-5 {5} 20 км 1/0
[Ac trans]
+27.6 +20.0 63 +34 +46 очень душно 1018.6 1017.9
СВ 4-5 {7} 20 км 1/0
[Ac trans]
+29.3 +19.0 54 +35 +46 очень душно 1018.6 1017.9
СВ 3-6 {6} 20 км 4/3 600 м
[Cu med, cong Ac trans]
+30.0 +20.0 55 +36 +47 очень душно 1018.8 1018.1
СВ 3-6 {6} 20 км 5/4 600 м
[Cb calv Ac trans]
+29.4 +20.2 58 +36 +44 очень душно 1018.6 1017.9
ЮВ 4-6 {6} 20 км 5/4 600 м
[Cb calv Ac trans]
+28.4 +19.6 59 +34 +40 очень душно 1018.5 1017.8
ЮВ 3-6 {7} 20 км 4/4 600 м
[Cb cap]
+30.0 +19.7 54 +36 +42 очень душно 1018.5 1017.8
В 3-5 {6} 20 км в посл. час гроза 5/3 600 м
[Cb cap Ac cuf]
+29.7 +19.7 55 +36 +40 очень душно 1018.3 1017.6
Ю 3-5 {7} 20 км 5/3 600 м
[Cb cap Ac cuf]
+28.1 +18.3 55 +33 +35 очень душно 1018.1 1017.4
ЮВ 3-4 {5} 20 км 5/1 600 м
[Cu med, cong Ac trans Ci sp]
+26.7 +16.7 54 +30 +31 душно 1018.1 1017.4
Ю 3-4 {5} 20 км 8/0
[Ac trans Ci sp]
+27.2 +15.7 49 +30 +30 душно 1018.3 1017.6
В 2-3 {6} 20 км 8/0
[Ac trans Ci sp]
+24.4 +18.1 68 +29 +29 душно 1018.1 1017.5 +24.4 +30.7
В 1-1 {5} 20 км 8/0
[Ac trans Ci sp]
+23.0 +17.8 73 +28 +28 душно 1018.6 1017.9
ЮВ 1-2 {2} 20 км 8/0
[Ac trans Ci sp]
+21.1 +17.4 79 +25 +25 комфорт 1019.0 1018.3
В 1-3 {3} 20 км 8/0
[Ac trans]
+20.9 +18.1 84 +26 +26 душно 1019.0 1018.3
В 2-3 {3} 20 км 4/0
[Ac trans]
+19.8 +18.2 90 +23 +23 комфорт 1018.8 1018.1
СВ 1-2 {2} 20 км 4/0
[Ac trans]
+19.9 +18.3 90 +24 +24 комфорт 1018.8 1018.1
В 1-2 {2} 20 км 3/0
[Ac trans]
+19.7 +18.4 92 +23 +23 комфорт 1018.6 1018.0
В 1-1 {2} 19 км ясно +19.0 +18.4 96 +22 +22 комфорт 1018.5 1017.8
В 1-2 {2} 10 км ясно +17.5 +17.1 98 +19 +19 1018.5 1017.8
штиль 0-1 {2} 5000 м дымка 3/0
[Ac trans]
+17.5 +17.1 98 +17 +18 1018.6 1017.9
С 1-1 {2} 20 км 3/0
[Ac trans Ci fib]
+20.6 +18.7 89 +26 +27 душно 1018.9 1018.2
штиль 0-1 {1} 20 км 1/0
[Ci fib]
+24.0 +20.0 78 +29 +35 душно 1019.0 1018.4
СВ 1-2 {2} 20 км 1/0
[Ci fib]
+25.8 +18.5 64 +31 +40 очень душно 1019.3 1018.7 +17.3 +25.8 0
В 1-2 {2} 20 км 1/0
[Ci sp]
+28.1 +17.8 54 +33 +46 очень душно 1019.6 1018.9
В 2-3 {3} 20 км 1/0
[Ci sp]
+29.4 +18.3 51 +34 +49 очень душно 1019.5 1018.8
Ю 3-5 {5} 20 км ясно +31.1 +13.6 34 +32 +47 жарко 1019.5 1018.9
Ю 4-6 {6} 20 км 1/0
[Ci sp]
+31.2 +13.9 35 +33 +45 жарко 1019.4 1018.8
Ю 4-6 {6} 20 км 1/0
[Ci fib]
+31.3 +14.2 35 +33 +45 жарко 1019.2 1018.6
Ю 4-6 {6} 20 км 1/0
[Ci fib]
+31.5 +13.7 34 +33 +43 жарко 1018.9 1018.2 0
Ю 5-7 {7} 20 км 1/0
[Ci fib]
+31.5 +15.1 37 +34 +40 душно 1018.2 1017.6
Ю 6-8 {8} 20 км 1/0
[Ci fib]
+30.9 +15.4 39 +33 +37 душно 1017.9 1017.2
Ю 5-8 {8} 20 км ясно +30.3 +16.1 42 +33 +36 душно 1017.7 1017.0
ЮВ 5-8 {9} 20 км ясно +29.0 +15.2 43 +32 +33 душно 1017.7 1017.0
ЮВ 4-7 {8} 20 км 1/0
[Ci fib]
+27.5 +15.8 49 +31 +31 душно 1017.5 1016.8
Ю 5-8 {8} 20 км 3/0
[Ci fib]
+26.1 +16.6 56 +30 +30 душно 1017.2 1016.6 +25.7 +31.9
Ю 4-6 {9} 20 км 1/0
[Ci fib]
+25.0 +17.6 64 +29 +29 душно 1017.4 1016.7
Ю 2-4 {8} 20 км ясно +24.0 +16.2 62 +27 +27 жарко 1017.3 1016.6
ЮВ 1-3 {5} 20 км ясно +23.5 +16.2 64 +27 +27 душно 1017.1 1016.4
Ю 3-5 {6} 20 км ясно +23.5 +15.5 61 +27 +27 душно 1017.0 1016.3
Ю 2-4 {7} 20 км ясно +23.1 +15.1 61 +27 +27 душно 1016.8 1016.1
штиль 0-2 {5} 20 км ясно +22.1 +14.3 61 +25 +25 комфорт 1016.2 1015.6
штиль 0-2 {2} 20 км ясно +22.0 +14.1 61 +25 +25 комфорт 1016.4 1015.7
СЗ 1-1 {3} 20 км ясно +21.1 +14.5 66 +24 +24 комфорт 1016.3 1015.6
В 1-1 {1} 20 км ясно +18.7 +14.9 79 +21 +21 комфорт 1016.1 1015.4
В 1-1 {1} 20 км 1/0
[Ac trans]
+21.0 +16.6 76 +26 +28 душно 1015.8 1015.1
В 1-1 {1} 20 км 1/0
[Ac trans]
+24.9 +16.4 59 +28 +33 жарко 1015.6 1014.9
Ю 2-3 {5} 20 км ясно +28.2 +14.1 42 +30 +38 жарко 1015.1 1014.5 +18.3 +28.2
Ю 3-5 {6} 20 км ясно +30.0 +13.1 35 +31 +41 жарко 1015.1 1014.4
ЮЗ 2-6 {6} 20 км ясно +32.5 +13.3 31 +33 +49 жарко 1015.0 1014.4
ЮЗ 3-7 {7} 20 км ясно +33.9 +15.1 32 +36 +51 опасность солнечного удара 1014.7 1014.1
З 2-5 {5} 20 км 1/0
[Ci fib]
+33.9 +17.2 37 +37 +56 опасность солнечного удара 1014.7 1014.1
СЗ 4-7 {7} 20 км 3/1 600 м
[Cu med, cong Ac trans]
+33.7 +18.4 40 +38 +48 очень душно 1014.8 1014.2
СЗ 3-5 {8} 20 км 5/3 600 м
[Cu hum Ci fib]
+34.1 +19.7 43 +40 +49 очень душно 1014.8 1014.1
С 3-7 {8} 20 км 5/4 600 м
[Cu med, cong Ac trans]
+34.3 +18.6 40 +39 +45 очень душно 1014.9 1014.2
С 3-8 {9} 20 км 4/3 600 м
[Cu hum Ac trans]
+33.4 +18.9 42 +38 +43 очень душно 1015.0 1014.3
С 3-6 {8} 20 км 4/1 600 м
[Cu med, cong Ac trans]
+32.3 +19.3 46 +38 +41 очень душно 1015.2 1014.5
С 4-8 {9} 20 км 3/1 600 м
[Cu med, cong Ac trans]
+30.8 +18.1 47 +35 +36 очень душно 1016.1 1015.4
С 4-9 {9} 20 км 1/0
[Ac lent]
+29.1 +16.5 47 +33 +33 очень душно 1017.0 1016.4
С 3-6 {9} 20 км 3/3 600 м
[Cu Sc]
+27.5 +15.5 48 +30 +30 жарко 1017.8 1017.1 +27.5 +34.6 0
С 2-4 {5} 20 км 3/3 600 м
[Sc]
+25.9 +14.5 49 +28 +28 жарко 1018.8 1018.1
С 2-3 {5} 20 км 3/3 600 м
[Cu Sc]
+24.8 +13.8 50 +27 +27 жарко 1019.5 1018.8
С 1-3 {3} 20 км 3/3 600 м
[Sc]
+23.7 +12.9 51 +26 +26 жарко 1019.9 1019.2
СВ 1-2 {3} 20 км 4/4 600 м
[Sc]
+21.4 +12.9 58 +24 +24 комфорт 1020.4 1019.7
СВ 1-3 {5} 16 км 3/3 600 м
[Sc]
+21.1 +12.5 58 +23 +23 комфорт 1020.6 1019.9
СВ 3-6 {6} 20 км ясно +20.7 +10.5 52 +23 +23 комфорт 1020.9 1020.2 0
СВ 1-4 {6} 20 км 3/0
[Ac trans]
+19.0 +10.5 58 +21 +21 комфорт 1021.1 1020.4
В 1-2 {3} 20 км 1/0
[Ac lent]
+16.6 +10.9 69 +17 +17 1021.0 1020.3
С 1-3 {3} 20 км 3/0
[Ac lent Ci fib]
+15.9 +11.8 77 +17 +17 1021.1 1020.4
Ю 1-2 {5} 20 км 4/0
[Ci sp]
+17.6 +12.2 71 +19 +20 1021.2 1020.5
СВ 2-4 {4} 20 км 5/0
[Ci sp]
+20.2 +13.0 63 +23 +27 комфорт 1021.4 1020.7
В 2-4 {4} 20 км 5/0
[Ac trans Ci sp]
+22.0 +14.0 60 +25 +31 комфорт 1021.5 1020.8 +15.8 +27.4
В 2-3 {4} 20 км 5/0
[Ac trans Ci sp]
+22.9 +13.7 56 +26 +35 жарко 1021.5 1020.8
В 2-4 {4} 20 км 5/0
[Ac trans Ci sp]
+24.0 +12.0 47 +26 +38 жарко 1021.1 1020.4
СВ 2-5 {5} 20 км 8/1 600 м
[Cu hum Ac trans Ci sp]
+25.1 +13.7 49 +27 +37 жарко 1020.9 1020.3
СВ 2-4 {4} 20 км 6/1 600 м
[Cu hum Ac trans Ci sp]
+25.8 +14.6 50 +28 +41 жарко 1020.4 1019.7
С 2-5 {5} 20 км 8/1 600 м
[Cu hum Ac trans Ci sp]
+26.6 +14.5 47 +29 +39 жарко 1019.6 1018.9
В 2-5 {6} 20 км 8/1 600 м
[Cu med, cong Ac trans Ci sp]
+27.5 +14.4 45 +30 +39 жарко 1019.2 1018.5
В 1-4 {6} 20 км 8/1 600 м
[Cu med, cong Ac trans Ci sp]
+27.1 +14.2 45 +29 +37 жарко 1018.7 1018.0
ЮВ 2-5 {6} 20 км 8/1 600 м
[Cu med, cong Ac trans Ci sp]
+27.2 +16.0 50 +30 +35 душно 1018.0 1017.3
ЮВ 2-5 {6} 20 км 6/1 600 м
[Cu med, cong Ac trans Ci sp]
+26.8 +16.1 52 +30 +33 душно 1017.3 1016.6
Ю 5-7 {7} 20 км 5/1 600 м
[Cu hum Ac trans Ci sp]
+25.8 +17.5 60 +30 +31 душно 1017.1 1016.4
Ю 5-7 {8} 20 км 1/0
[Ci fib]
+23.8 +16.8 65 +27 +28 жарко 1017.1 1016.4
Ю 4-6 {7} 20 км 3/0
[Ac trans Ci fib]
+22.4 +16.6 70 +27 +27 душно 1016.7 1016.0 +21.8 +27.7
Ю 3-5 {7} 20 км 1/0
[Ac trans]
+21.4 +16.4 73 +25 +25 комфорт 1016.7 1016.0
ЮВ 1-3 {6} 20 км 1/0
[Ac trans]
+19.6 +16.1 80 +23 +23 комфорт 1016.6 1015.9
Ю 2-4 {5} 20 км 1/0
[Ac trans]
+20.2 +16.0 77 +24 +24 комфорт 1016.6 1015.9
Ю 2-3 {3} 20 км 1/0
[Ac trans]
+19.6 +16.0 80 +22 +22 комфорт 1016.4 1015.7
ЮВ 1-2 {2} 20 км ясно +18.1 +15.8 86 +19 +19 1015.9 1015.3
В 1-1 {2} 20 км ясно +17.6 +15.5 87 +19 +19 1015.6 1015.0
СВ 1-1 {2} 20 км ясно +16.4 +15.0 91 +17 +17 1015.6 1014.9
Ю 1-1 {1} 20 км ясно +15.6 +14.5 93 +16 +16 1015.8 1015.1
ЮЗ 1-1 {1} 20 км ясно +16.3 +15.5 95 +17 +17 1015.4 1014.7
штиль 0 {1} 20 км ясно +19.2 +16.1 82 +21 +23 комфорт 1015.4 1014.7
СЗ 1-2 {2} 20 км ясно +21.3 +17.7 80 +25 +30 комфорт 1015.3 1014.6
СЗ 1-2 {2} 20 км ясно +22.9 +17.9 73 +28 +37 душно 1015.5 1014.8 +15.4 +22.9
Ю 1-2 {3} 20 км ясно +25.2 +16.0 57 +29 +42 душно 1015.3 1014.6
СВ 1-2 {3} 20 км ясно +26.4 +15.6 51 +29 +48 жарко 1015.0 1014.3
В 2-4 {6} 20 км ясно +27.4 +16.3 51 +31 +49 душно 1014.8 1014.2
СВ 3-6 {6} 20 км ясно +28.1 +15.5 46 +31 +47 душно 1014.3 1013.7
ЮВ 2-4 {6} 20 км ясно +28.8 +15.0 43 +31 +50 жарко 1014.0 1013.3
ЮВ 3-6 {6} 20 км ясно +29.3 +14.8 41 +32 +45 душно 1013.4 1012.8
Ю 4-6 {6} 20 км ясно +29.1 +16.5 47 +33 +41 очень душно 1012.8 1012.2
Ю 5-7 {8} 20 км ясно +28.3 +16.2 48 +32 +36 душно 1012.7 1012.0
Ю 5-7 {8} 20 км ясно +27.2 +16.3 51 +31 +33 душно 1012.5 1011.8
Ю 5-7 {7} 20 км ясно +26.1 +15.6 52 +29 +30 жарко 1012.1 1011.4
ЮВ 4-6 {8} 20 км ясно +24.8 +15.3 56 +28 +28 жарко 1011.8 1011.1
ЮВ 3-5 {6} 20 км ясно +23.3 +14.8 59 +27 +27 душно 1011.6 1010.9 +22.9 +29.5
В 1-3 {4} 20 км ясно +21.5 +15.1 67 +25 +25 комфорт 1011.9 1011.2
ЮВ 2-3 {3} 20 км ясно +21.0 +16.5 75 +25 +25 комфорт 1012.4 1011.7
ЮВ 1-2 {4} 20 км ясно +20.0 +16.4 80 +24 +24 комфорт 1012.7 1012.0
ЮВ 3-5 {5} 20 км ясно +20.4 +16.1 76 +24 +24 комфорт 1013.0 1012.3
В 1-3 {4} 20 км ясно +18.5 +15.9 85 +20 +20 1012.3 1011.6
ЮЗ 1-1 {2} 20 км ясно +17.8 +15.2 85 +19 +19 1011.8 1011.1
СВ 1-1 {1} 20 км ясно +16.6 +15.3 92 +17 +17 1011.1 1010.4
СВ 1-2 {2} 20 км ясно +16.9 +15.0 89 +18 +18 1011.1 1010.4
В 1-2 {2} 20 км н/о +15.7 +14.5 93 +16 +16 1011.6 1010.9
штиль 0-2 {3} 20 км 1/0
[Ac trans]
+18.6 +15.0 80 +19 +21 1011.5 1010.8
ЮЗ 1-2 {2} 20 км 8/0
[Cs]
+22.6 +13.7 57 +26 +30 жарко 1011.3 1010.6
СЗ 2-4 {4} 20 км 6/0
[Cs]
+23.5 +15.8 62 +27 +34 душно 1012.9 1012.2 +14.7 +23.5 0
С 2-4 {4} 20 км 3/0
[Ci fib]
+25.0 +14.6 52 +28 +39 жарко 1013.2 1012.5
В 2-4 {4} 20 км ясно +25.8 +14.8 51 +29 +44 душно 1012.5 1011.9
В 2-5 {5} 20 км ясно +26.7 +11.6 39 +28 +46 жарко 1012.2 1011.5
ЮВ 3-5 {5} 20 км ясно +28.5 +12.2 36 +30 +46 жарко 1011.5 1010.9
ЮВ 3-5 {5} 20 км ясно +30.4 +13.5 36 +32 +47 жарко 1011.2 1010.5
Ю 5-8 {8} 20 км ясно +29.8 +15.3 41 +32 +41 душно 1011.4 1010.7
Ю 4-7 {8} 20 км ясно +30.1 +14.4 38 +32 +40 жарко 1011.1 1010.4
ЮВ 4-7 {7} 20 км ясно +29.1 +9.1 29 +29 +35 жарко 1010.9 1010.3
ЮВ 4-6 {7} 20 км ясно +28.4 +11.0 34 +29 +32 жарко 1011.2 1010.5
ЮВ 4-6 {6} 20 км ясно +27.5 +12.9 40 +29 +30 жарко 1011.3 1010.7
ЮВ 4-7 {7} 20 км ясно +25.8 +15.5 53 +29 +29 душно 1011.1 1010.4
ЮВ 3-4 {5} 20 км 1/0
[Ac trans]
+23.5 +15.6 61 +27 +27 душно 1011.3 1010.6 +23.3 +30.5
ЮВ 3-4 {5} 20 км 1/0
[Ci fib]
+21.2 +16.2 73 +25 +25 комфорт 1011.4 1010.7
ЮВ 1-3 {4} 20 км ясно +21.8 +17.1 75 +26 +26 душно 1011.6 1010.9
штиль 0-2 {3} 20 км 1/0
[Ac trans]
+21.9 +17.0 74 +26 +26 душно 1011.7 1011.0
С 1-2 {5} 20 км 1/0
[Ac trans]
+20.6 +16.6 78 +25 +25 комфорт 1011.9 1011.2
СЗ 1-2 {2} 20 км 1/0
[Ac trans]
+19.5 +16.4 82 +23 +23 комфорт 1012.1 1011.5
З 1-2 {4} 20 км ясно +20.3 +16.2 77 +24 +24 комфорт 1012.2 1011.5
З 1-2 {2} 20 км 1/0
[Ac trans]
+20.4 +16.6 79 +25 +25 комфорт 1012.0 1011.4
З 1-2 {2} 20 км 3/0
[Ac trans]
+19.9 +16.9 83 +24 +24 комфорт 1012.1 1011.4
З 1-2 {2} 20 км 3/0
[Ac trans Ci fib]
+18.6 +17.2 92 +21 +21 комфорт 1012.3 1011.6
СЗ 1-2 {2} 20 км 1/0
[Ci fib]
+21.3 +17.3 78 +25 +27 комфорт 1012.5 1011.8
СВ 3-5 {6} 20 км 1/0
[Ci fib]
+22.4 +17.5 74 +27 +31 душно 1012.6 1012.0
СВ 3-6 {6} 20 км 4/0
[Ci fib]
+23.9 +18.3 71 +28 +34 душно 1012.9 1012.2 +18.4 +24.0
Местоположение метеостанции Тулча (Румыния): широта 45.18 долгота 28.82 высота над уровнем моря 6 м.
В архиве по умолчанию представлена погода в Тулче за последнюю неделю. Архивные данные за месяц целиком и за предыдущие месяцы, начиная с января 2011 года, Вы можете получить, выбрав интересующий диапазон дат из раскрывающегося списка и нажав кнопку "Найти!".
*Определитесь, кто Вы:
Внимание! Время в таблицах - всемирное. Для получения местного времени необходимо прибавить поправку, которая равна 2 ч.
Некоторые строки с данными для отдельных станций могут быть выделены курсивом. Это означает, что фактические данные отсутствуют по различным причинам, а приведенные значения являются расчетными модельными данными для данного пункта наблюдений.
Смотрите также архив погоды в соседних городах и на ближайших метеорологических станциях:
Партнеры нашего сайта:      
Пояснения к столбцам:
  • Ветер - указаны скорость ветра в м/с - средняя за 10 мин, порывы в срок и между сроками (в фигурных скобках) и направление, откуда дует ветер: С - северный,
  • СВ - северо-восточный, В - восточный, ЮВ - юго-восточный, Ю - южный, ЮЗ - юго-западный, З - западный, СЗ - северо-западный.
  • Видимость - горизонтальная дальность видимости в метрах или километрах. При видимости от 1 до 10 км при отсутствии осадков обычно наблюдается дымка, при ухудшении видимости до 1 км и менее - туман. В сухую погоду видимость может ухудшаться дымом, пылью или мглою.
  • Явления - указаны атмосферные явления, наблюдавшиеся в срок или в последний час перед сроком; фигурными скобками обозначены явления, наблюдавшиеся между сроками (за 1-3 часа до срока); квадратными скобками обозначены град или гололедные отложения с указанием их диаметра в мм.
  • Облачность - указаны через наклонную черту общая и нижняя облачность в баллах и высота нижней границы облаков в метрах; квадратными скобками обозначены формы облаков: Ci - перистые, Cs - перисто-слоистые, Cc - перисто-кучевые, Ac - высококучевые, As - высокослоистые, Sc - слоисто-кучевые, Ns - слоисто-дождевые, Cu - кучевые, Cb - кучево-дождевые. Подробнее классификацию облаков см. в Атласе облаков (PDF).
  • T - Температура воздуха - температура, измеренная на высоте 2 м над землей.
  • Td - Температура точки росы - температура, при понижении до которой содержащийся в воздухе водяной пар достигнет насыщения.
  • f - Относительная влажность воздуха - влажноcть воздуха, измеренная на высоте 2 м над землей.
  • Te - Эффективная температура - температура, которую ощущает одетый по сезону человек в тени. Характеристика душности погоды. При расчете учитывается влияние влажности воздуха и скорости ветра на теплоощущения человека.
  • Tes - Эффективная температура на солнце - температура, которую ощущает человек, с поправкой на солнечный нагрев. Характеристика знойности погоды. Зависит от высоты солнца над горизонтом, облачности и скорости ветра. Ночью, в пасмурную погоду, а также при ветре 12 м/с и более поправка равна нулю.
  • P - Атмосферное давление - приведенное к уровню моря атмосферное давление.
  • Po - Атмосферное давление - измеренное на уровне метеостанции атмосферное давление.
  • Tmin - Минимальная температура - минимум температуры воздуха на высоте 2 м над землей.
  • Tmax - Максимальная температура - максимум температуры воздуха на высоте 2 м над землей.
  • R - Количество осадков - Количество выпавших осадков за период времени, мм. При наведении курсора мыши на число - период времени, за который выпало указанное количество осадков.
  • R24 - Количество осадков - Количество выпавших осадков за 24 часа, мм.
  • S - Снежный покров - Высота снежного покрова, см. При наведении курсора мыши на число - состояние снежного покрова и степень покрытия местности в баллах.